Content
SEND FEEDBACK

Daily
Averages
Monthly
Summary
United States of America

BOSTON, MASSACHUSETTS


Home > North America > United States > Massachusetts
Elevation: 1 meter     Latitude: 42 22N     Longitude: 071 02W

WEATHER
 
SELECT A DAY
Number of Records: 202,493;   Date Range: 1/1/95 - 7/23/14
 
SHARE

PRINT THIS DATA

[ ← Previous Day ]
WEATHER ALMANAC - 6 JULY, 2013
[ Next Day → ]
[ °F ]   °C
Weather ElementAverageHighLow
Temperature30 °C33.9 °C (3:54 pm)26.1 °C (2:54 am)
Dewpoint20.1 °C22.2 °C (1:54 am)16.1 °C (10:54 pm)
Humidity56.4 %77 % (2:54 am)42 % (4:54 pm)
Barometer1016.9 hPa1018.3 hPa (1:54 am)1014.9 hPa (5:54 pm)
Wind Speed18.7 km/h25.9 km/h (6:54 pm)
Wind Gust38.9 km/h (5:54 pm)
Weather ElementAverage
Visibility16.1 km
Wind DirectionW (273.5 °)

Weather ElementTotal
Precipitation---
Cooling Degree Days11.7 (Base 18.3)
Growing Degree Days20 (Base 10)
Averaged from 23 records on 6 July, 2013
WEATHER CONDITIONS BREAKOUT
WIND DIRECTION BREAKOUT
WEATHER BY HOUR - 6 JULY, 2013
[ °F ]   °C
Local TimeTemperatureDewpointHumidityBarometerVisibilityWind DirectionWind SpeedGust SpeedPrecipitationEventsConditions
1:54 AM26.7 °C22.2 °C76 %1018.3 hPa16.1 kmWSW (250°)14.8 km/hClear
2:54 AM26.1 °C21.7 °C77 %1017.9 hPa16.1 kmWSW (240°)14.8 km/hClear
3:54 AM26.1 °C21.7 °C77 %1017.9 hPa16.1 kmWSW (250°)13 km/hClear
4:54 AM26.1 °C21.7 °C77 %1017.9 hPa16.1 kmWSW (250°)13 km/hClear
5:54 AM26.1 °C21.7 °C77 %1018.3 hPa16.1 kmWSW (250°)14.8 km/hClear
6:54 AM27.2 °C21.7 °C72 %1018.3 hPa16.1 kmWest (280°)14.8 km/hClear
7:54 AM28.3 °C21.7 °C67 %1017.9 hPa16.1 kmWest (270°)14.8 km/hClear
8:54 AM30 °C21.1 °C59 %1017.9 hPa16.1 kmWest (280°)18.5 km/hClear
9:54 AM31.1 °C21.1 °C55 %1017.3 hPa16.1 kmWest (260°)24.1 km/h37 km/hPartly Cloudy
10:54 AM32.2 °C21.1 °C52 %1017.3 hPa16.1 kmWest (270°)20.4 km/hPartly Cloudy
11:54 AM32.8 °C21.1 °C50 %1016.9 hPa16.1 kmWest (270°)22.2 km/h33.3 km/hMostly Cloudy
12:54 PM32.8 °C21.1 °C50 %1016.6 hPa16.1 kmWest (280°)22.2 km/h31.5 km/hMostly Cloudy
1:54 PM33.3 °C20.6 °C47 %1016.3 hPa16.1 kmWest (270°)22.2 km/hMostly Cloudy
2:54 PM32.8 °C20.6 °C48 %1016.3 hPa16.1 kmNW (310°)24.1 km/h35.2 km/hMostly Cloudy
3:54 PM33.9 °C20 °C44 %1015.9 hPa16.1 kmWest (280°)24.1 km/hMostly Cloudy
4:54 PM33.3 °C18.9 °C42 %1015.2 hPa16.1 kmWest (260°)24.1 km/h35.2 km/hMostly Cloudy
5:54 PM32.8 °C18.3 °C42 %1014.9 hPa16.1 kmWest (280°)24.1 km/h38.9 km/hMostly Cloudy
6:54 PM32.2 °C18.3 °C43 %1014.9 hPa16.1 kmWNW (290°)25.9 km/h35.2 km/hMostly Cloudy
7:54 PM31.1 °C18.3 °C46 %1015.2 hPa16.1 kmWNW (300°)20.4 km/h31.5 km/hMostly Cloudy
8:54 PM30 °C18.9 °C51 %1015.6 hPa16.1 kmWest (280°)13 km/hMostly Cloudy
9:54 PM29.4 °C17.8 °C49 %1016.3 hPa16.1 kmWNW (290°)14.8 km/hScattered Clouds
10:54 PM28.3 °C16.1 °C47 %1016.3 hPa16.1 kmWest (280°)14.8 km/hPartly Cloudy
11:54 PM27.8 °C16.1 °C49 %1016.3 hPa16.1 kmWNW (300°)14.8 km/hClear
Hourly data recorded from KBOS, located 0 kilometers away from Boston, Massachusetts







STORIES FROM OUR PARTNERS